WB1DX Weather Reports


Display with metric or nautical units.
time (UTC)temp
F
wind
direction
speed
MPH
gust
MPH
rain 1hr
in
rain 24hr
in
rain mn
in
humidity
%
barometer
mb
20260504201904 69 145 4.0 9.0 0.00 0.00 0.00 28 984.0
20260504201403 69 190 3.0 6.0 0.00 0.00 0.00 28 984.0
20260504200903 69 201 2.0 2.0 0.00 0.00 0.00 30 984.0
20260504200402 70 181 4.0 11.0 0.00 0.00 0.00 27 984.0
20260504195902 71 171 3.0 4.0 0.00 0.00 0.00 27 984.0
20260504195403 70 150 1.0 9.0 0.00 0.00 0.00 27 984.0
20260504194902 71 132 3.0 8.0 0.00 0.00 0.00 28 984.0
20260504194404 70 81 1.0 7.0 0.00 0.00 0.00 27 984.0
20260504193903 70 199 4.0 9.0 0.00 0.00 0.00 27 984.0
20260504193403 68 146 2.0 9.0 0.00 0.00 0.00 29 984.0
20260504192903 68 151 2.0 2.0 0.00 0.00 0.00 29 984.0
20260504192402 69 178 4.0 15.0 0.00 0.00 0.00 28 984.0
20260504191905 69 253 4.0 7.0 0.00 0.00 0.00 27 984.0
20260504191402 69 177 4.0 6.0 0.00 0.00 0.00 28 984.0
20260504190904 70 149 2.0 6.0 0.00 0.00 0.00 28 984.0
20260504190404 70 220 4.0 7.0 0.00 0.00 0.00 28 984.0
20260504185903 69 148 5.0 10.0 0.00 0.00 0.00 28 984.0
20260504185402 69 153 5.0 10.0 0.00 0.00 0.00 27 984.0
20260504184903 70 163 5.0 8.0 0.00 0.00 0.00 28 984.0
20260504184404 69 99 1.0 4.0 0.00 0.00 0.00 28 984.0
20260504183903 69 178 5.0 8.0 0.00 0.00 0.00 27 984.0
20260504183403 69 155 6.0 7.0 0.00 0.00 0.00 27 984.0
20260504182903 70 134 0.0 7.0 0.00 0.00 0.00 26 984.0
20260504182402 70 155 1.0 3.0 0.00 0.00 0.00 27 984.0
20260504181904 69 158 1.0 7.0 0.00 0.00 0.00 26 984.0
20260504181403 69 173 4.0 10.0 0.00 0.00 0.00 26 984.0
20260504180905 70 163 2.0 8.0 0.00 0.00 0.00 26 984.0
20260504180404 69 135 2.0 6.0 0.00 0.00 0.00 26 984.0
20260504175903 68 201 3.0 10.0 0.00 0.00 0.00 26 984.0
20260504175405 68 145 5.0 8.0 0.00 0.00 0.00 25 984.0
20260504174904 68 169 7.0 13.0 0.00 0.00 0.00 26 985.0
20260504174407 69 157 4.0 7.0 0.00 0.00 0.00 25 985.0
20260504173903 68 177 2.0 6.0 0.00 0.00 0.00 27 985.0
20260504173403 68 168 6.0 10.0 0.00 0.00 0.00 26 985.0
20260504172903 68 196 3.0 10.0 0.00 0.00 0.00 27 985.0
20260504172405 68 137 4.0 6.0 0.00 0.00 0.00 27 985.0
20260504171905 68 164 5.0 7.0 0.00 0.00 0.00 27 985.0
20260504171403 67 172 5.0 7.0 0.00 0.00 0.00 28 985.0
20260504170905 67 225 4.0 11.0 0.00 0.00 0.00 27 985.0
20260504170403 67 138 3.0 7.0 0.00 0.00 0.00 27 985.0
20260504160403 66 184 5.0 7.0 0.00 0.00 0.00 29 986.0
20260504150903 64 155 7.0 10.0 0.00 0.00 0.00 30 986.0
20260504150403 63 154 2.0 2.0 0.00 0.00 0.00 33 986.0
20260504140904 61 238 4.0 4.0 0.00 0.00 0.00 34 987.0
20260504140405 60 165 0.0 4.0 0.00 0.00 0.00 36 987.0
20260504130407 58 149 2.0 4.0 0.00 0.00 0.00 38 987.0
20260504110403 46 150 2.0 2.0 0.00 0.00 0.00 58 987.0
20260504100405 37 195 0.0 0.0 0.00 0.00 0.00 81 987.0
20260504081902 40 195 1.0 1.0 0.00 0.00 0.00 76 987.0
20260504081404 40 195 0.0 1.0 0.00 0.00 0.00 75 986.0
20260504080904 40 195 0.0 1.0 0.00 0.00 0.00 73 987.0
20260504080402 40 195 0.0 1.0 0.00 0.00 0.00 72 987.0
20260504070404 41 195 0.0 0.0 0.00 0.00 0.00 72 986.0
20260504050404 39 195 1.0 2.0 0.00 0.00 0.00 72 987.0
20260504045903 39 195 1.0 1.0 0.00 0.00 0.00 73 987.0
20260504045402 39 195 1.0 1.0 0.00 0.00 0.00 72 987.0
20260504044902 39 195 2.0 2.0 0.00 0.00 0.00 72 987.0
20260504044404 39 195 1.0 2.0 0.00 0.00 0.00 73 987.0
20260504043902 39 195 1.0 2.0 0.00 0.00 0.00 73 987.0
20260504043402 39 195 2.0 2.0 0.00 0.00 0.00 74 987.0
20260504042903 39 194 1.0 1.0 0.00 0.00 0.00 75 987.0
20260504042402 39 194 1.0 2.0 0.00 0.00 0.00 71 987.0
20260504041902 39 194 2.0 2.0 0.00 0.00 0.00 75 987.0
20260504041403 39 194 2.0 2.0 0.00 0.00 0.00 74 987.0
20260504040903 39 193 0.0 2.0 0.00 0.00 0.00 72 987.0
20260504040402 39 193 1.0 2.0 0.00 0.00 0.00 70 987.0
20260504035902 39 193 1.0 1.0 0.00 0.00 0.00 70 987.0
20260504035402 39 193 0.0 2.0 0.00 0.00 0.00 69 987.0
20260504034904 39 193 1.0 1.0 0.00 0.00 0.00 69 987.0
20260504034402 39 193 1.0 1.0 0.00 0.00 0.00 68 987.0
20260504033902 38 193 1.0 1.0 0.00 0.00 0.00 70 987.0
20260504033402 38 193 1.0 1.0 0.00 0.00 0.00 73 987.0
20260504032903 38 194 2.0 2.0 0.00 0.00 0.00 73 987.0
20260504032403 38 193 2.0 2.0 0.00 0.00 0.00 73 987.0
20260504031902 38 193 2.0 2.0 0.00 0.00 0.00 73 987.0
20260504031402 38 192 3.0 2.0 0.00 0.00 0.00 73 987.0
20260504030902 38 184 2.0 2.0 0.00 0.00 0.00 72 986.0
20260504030402 38 183 1.0 2.0 0.00 0.00 0.00 71 987.0
20260504025902 38 183 2.0 2.0 0.00 0.00 0.00 70 987.0
20260504025402 38 182 1.0 2.0 0.00 0.00 0.00 71 987.0
20260504024903 38 179 2.0 2.0 0.00 0.00 0.00 72 986.0
20260504024402 38 176 1.0 2.0 0.00 0.00 0.00 72 986.0
20260504023903 38 174 2.0 2.0 0.00 0.00 0.00 71 987.0
20260504023402 38 168 0.0 1.0 0.00 0.00 0.00 71 986.0
20260504022904 38 166 2.0 2.0 0.00 0.00 0.00 71 986.0
20260504022402 38 163 2.0 2.0 0.00 0.00 0.00 70 986.0
20260504021904 38 157 2.0 2.0 0.00 0.00 0.00 69 986.0
20260504021402 38 154 1.0 2.0 0.00 0.00 0.00 68 986.0
20260504020903 38 153 0.0 2.0 0.00 0.00 0.00 66 986.0
20260504020402 38 153 1.0 1.0 0.00 0.00 0.00 66 986.0
20260504015902 38 152 0.0 1.0 0.00 0.00 0.00 65 986.0
20260504015402 38 152 1.0 1.0 0.00 0.00 0.00 65 986.0
20260504014902 39 152 0.0 1.0 0.00 0.00 0.00 66 986.0
20260504014402 39 152 1.0 1.0 0.00 0.00 0.00 66 986.0
20260504013903 39 152 1.0 1.0 0.00 0.00 0.00 65 986.0
20260504013403 39 152 1.0 1.0 0.00 0.00 0.00 64 986.0
20260504012902 39 152 0.0 1.0 0.00 0.00 0.00 62 986.0
20260504012403 40 152 1.0 1.0 0.00 0.00 0.00 60 986.0
20260504011902 40 152 0.0 1.0 0.00 0.00 0.00 60 986.0
20260504011403 40 152 0.0 1.0 0.00 0.00 0.00 58 986.0
20260504010914 40 152 0.0 1.0 0.00 0.00 0.00 62 986.0
20260504010403 41 152 1.0 1.0 0.00 0.00 0.00 62 986.0
20260504005903 41 152 1.0 1.0 0.00 0.00 0.00 61 986.0
20260504005402 41 152 0.0 1.0 0.00 0.00 0.00 62 986.0
20260504004903 41 152 1.0 1.0 0.00 0.00 0.00 63 986.0
20260504004402 41 151 1.0 1.0 0.00 0.00 0.00 63 985.0
20260504003902 42 151 1.0 1.0 0.00 0.00 0.00 62 986.0
20260504003402 42 150 0.0 2.0 0.00 0.00 0.00 61 985.0
20260504002902 42 148 1.0 1.0 0.00 0.00 0.00 59 985.0
20260504002402 43 147 2.0 2.0 0.00 0.00 0.00 59 985.0
20260504001902 43 135 1.0 2.0 0.00 0.00 0.00 57 985.0
20260504001402 43 127 1.0 2.0 0.00 0.00 0.00 57 985.0
20260504000902 44 120 1.0 2.0 0.00 0.00 0.00 56 985.0
20260504000403 44 118 1.0 1.0 0.00 0.00 0.00 51 985.0
20260503235902 45 117 1.0 1.0 0.00 0.00 0.00 50 985.0
20260503235402 45 117 0.0 1.0 0.00 0.00 0.00 50 985.0
20260503234903 46 116 1.0 1.0 0.00 0.00 0.00 47 985.0
20260503234402 46 116 1.0 1.0 0.00 0.00 0.00 47 985.0
20260503233902 47 116 1.0 1.0 0.00 0.00 0.00 44 985.0
20260503233403 48 116 1.0 1.0 0.00 0.00 0.00 43 985.0
20260503232902 48 115 0.0 0.0 0.00 0.00 0.00 39 985.0
20260503232403 49 115 0.0 0.0 0.00 0.00 0.00 40 985.0
20260503231902 49 108 0.0 1.0 0.00 0.00 0.00 37 985.0
20260503231402 49 110 0.0 0.0 0.00 0.00 0.00 40 985.0
20260503230902 49 112 0.0 2.0 0.00 0.00 0.00 38 985.0
20260503230402 50 65 1.0 1.0 0.00 0.00 0.00 38 985.0
20260503225902 50 353 3.0 6.0 0.00 0.00 0.00 36 985.0
20260503225402 50 112 0.0 1.0 0.00 0.00 0.00 37 985.0
20260503224902 50 123 1.0 2.0 0.00 0.00 0.00 35 985.0
20260503224402 50 163 3.0 4.0 0.00 0.00 0.00 34 985.0
20260503223903 50 110 1.0 2.0 0.00 0.00 0.00 34 984.0
20260503223402 50 150 0.0 2.0 0.00 0.00 0.00 35 984.0
20260503222903 50 124 2.0 4.0 0.00 0.00 0.00 35 985.0
20260503222403 50 142 2.0 2.0 0.00 0.00 0.00 33 985.0
20260503221902 50 164 5.0 7.0 0.00 0.00 0.00 33 984.0
20260503221402 51 133 2.0 7.0 0.00 0.00 0.00 35 984.0
20260503220903 51 157 2.0 2.0 0.00 0.00 0.00 34 984.0
20260503220403 51 105 0.0 2.0 0.00 0.00 0.00 34 984.0
20260503215903 51 101 4.0 10.0 0.00 0.00 0.00 32 984.0
20260503215410 51 144 2.0 4.0 0.00 0.00 0.00 32 984.0
20260503214902 51 76 1.0 2.0 0.00 0.00 0.00 33 984.0
20260503214402 51 51 2.0 3.0 0.00 0.00 0.00 34 984.0
20260503213903 51 47 3.0 3.0 0.00 0.00 0.00 33 984.0
20260503213402 51 85 1.0 4.0 0.00 0.00 0.00 32 984.0
20260503212902 51 77 2.0 2.0 0.00 0.00 0.00 33 984.0
20260503212402 51 42 2.0 3.0 0.00 0.00 0.00 33 984.0
20260503211903 51 72 1.0 4.0 0.00 0.00 0.00 33 984.0
20260503211402 52 111 1.0 2.0 0.00 0.00 0.00 35 984.0
20260503210902 52 348 3.0 4.0 0.00 0.00 0.00 33 984.0
20260503210402 51 104 4.0 4.0 0.00 0.00 0.00 34 984.0
20260503205902 51 86 1.0 2.0 0.00 0.00 0.00 34 984.0
20260503205402 51 60 0.0 2.0 0.00 0.00 0.00 33 984.0
20260503204902 51 69 1.0 3.0 0.00 0.00 0.00 34 984.0
20260503204402 52 58 1.0 7.0 0.00 0.00 0.00 32 984.0
20260503203903 51 70 8.0 10.0 0.00 0.00 0.00 32 984.0
20260503203404 51 107 3.0 3.0 0.00 0.00 0.00 33 984.0
20260503202902 51 36 4.0 8.0 0.00 0.00 0.00 33 984.0
20260503202403 51 170 1.0 7.0 0.00 0.00 0.00 33 984.0